GW3780 Weather Reports


Display with metric or nautical units.
time (UTC)temp
F
wind
direction
speed
MPH
gust
MPH
rain 1hr
in
rain 24hr
in
rain mn
in
humidity
%
barometer
mb
20260508185913 69 182 2.0 5.0 0.00 0.00 0.00 36 1015.7
20260508185411 69 266 0.0 3.0 0.00 0.00 0.00 35 1015.8
20260508184908 69 189 2.0 6.0 0.00 0.00 0.00 35 1016.1
20260508184405 69 268 2.0 3.0 0.00 0.00 0.00 36 1016.1
20260508183901 69 296 0.0 5.0 0.00 0.00 0.00 35 1016.1
20260508183358 69 205 2.0 5.0 0.00 0.00 0.00 36 1016.2
20260508182854 68 278 0.0 4.0 0.00 0.00 0.00 35 1016.4
20260508182351 68 300 1.0 2.0 0.00 0.00 0.00 36 1016.3
20260508181846 69 286 3.0 4.0 0.00 0.00 0.00 37 1016.5
20260508181343 70 179 1.0 3.0 0.00 0.00 0.00 36 1016.5
20260508180840 69 184 2.0 4.0 0.00 0.00 0.00 38 1016.6
20260508180337 68 226 2.0 6.0 0.00 0.00 0.00 37 1016.6
20260508175833 68 151 3.0 3.0 0.00 0.00 0.00 39 1016.7
20260508175330 68 174 0.0 3.0 0.00 0.00 0.00 36 1016.7
20260508174828 67 174 2.0 5.0 0.00 0.00 0.00 36 1016.8
20260508174325 68 235 3.0 4.0 0.00 0.00 0.00 36 1016.7
20260508173821 68 200 0.0 2.0 0.00 0.00 0.00 37 1016.9
20260508173319 67 217 0.0 4.0 0.00 0.00 0.00 37 1016.7
20260508172814 67 57 2.0 5.0 0.00 0.00 0.00 37 1016.9
20260508172312 66 105 1.0 3.0 0.00 0.00 0.00 38 1016.8
20260508171808 66 137 1.0 3.0 0.00 0.00 0.00 39 1017.0
20260508171304 66 196 3.0 4.0 0.00 0.00 0.00 38 1017.2
20260508170801 66 190 2.0 2.0 0.00 0.00 0.00 40 1017.4
20260508170259 65 215 4.0 6.0 0.00 0.00 0.00 40 1017.3
20260508165755 66 246 2.0 3.0 0.00 0.00 0.00 41 1017.5
20260508165253 64 142 2.0 4.0 0.00 0.00 0.00 41 1017.5
20260508164749 66 199 3.0 3.0 0.00 0.00 0.00 42 1017.6
20260508164246 65 251 1.0 3.0 0.00 0.00 0.00 44 1017.5
20260508163744 66 284 2.0 3.0 0.00 0.00 0.00 41 1017.7
20260508163241 65 195 2.0 2.0 0.00 0.00 0.00 43 1017.8
20260508162731 66 184 3.0 3.0 0.00 0.00 0.00 43 1018.0
20260508162228 65 348 3.0 4.0 0.00 0.00 0.00 40 1017.9
20260508161725 65 256 4.0 5.0 0.00 0.00 0.00 40 1018.2
20260508161223 64 214 0.0 4.0 0.00 0.00 0.00 41 1018.1
20260508160720 64 194 0.0 4.0 0.00 0.00 0.00 43 1017.9
20260508160219 64 246 2.0 3.0 0.00 0.00 0.00 40 1018.0
20260508155715 64 230 0.0 3.0 0.00 0.00 0.00 41 1018.3
20260508155212 63 318 1.0 3.0 0.00 0.00 0.00 41 1018.3
20260508154709 63 164 0.0 3.0 0.00 0.00 0.00 42 1018.4
20260508154206 62 189 1.0 4.0 0.00 0.00 0.00 40 1018.5
20260508153702 63 191 0.0 2.0 0.00 0.00 0.00 40 1018.5
20260508153159 62 186 0.0 2.0 0.00 0.00 0.00 41 1018.7
20260508152656 63 194 3.0 3.0 0.00 0.00 0.00 39 1018.8
20260508152152 64 89 0.0 2.0 0.00 0.00 0.00 39 1018.5
20260508151648 63 328 2.0 2.0 0.00 0.00 0.00 42 1018.7
20260508151145 63 294 1.0 2.0 0.00 0.00 0.00 41 1018.8
20260508150642 62 92 2.0 3.0 0.00 0.00 0.00 43 1018.6
20260508150139 61 6 2.0 3.0 0.00 0.00 0.00 38 1018.7
20260508145634 61 89 0.0 4.0 0.00 0.00 0.00 39 1018.8
20260508145131 61 88 0.0 3.0 0.00 0.00 0.00 41 1018.8
20260508144629 62 342 2.0 4.0 0.00 0.00 0.00 42 1018.7
20260508144126 61 11 1.0 3.0 0.00 0.00 0.00 43 1018.5
20260508143624 61 20 2.0 2.0 0.00 0.00 0.00 44 1018.7
20260508143120 61 298 0.0 3.0 0.00 0.00 0.00 45 1018.6
20260508142617 61 209 1.0 3.0 0.00 0.00 0.00 45 1018.6
20260508142114 61 317 2.0 3.0 0.00 0.00 0.00 44 1018.7
20260508141610 61 109 0.0 2.0 0.00 0.00 0.00 47 1018.7
20260508141108 60 319 1.0 2.0 0.00 0.00 0.00 50 1018.7
20260508140605 60 118 0.0 2.0 0.00 0.00 0.00 49 1018.8
20260508135557 60 5 0.0 0.0 0.00 0.00 0.00 45 1018.6
20260508135053 60 171 1.0 6.0 0.00 0.00 0.00 46 1018.9
20260508134550 60 299 0.0 5.0 0.00 0.00 0.00 42 1019.0
20260508134047 62 352 2.0 3.0 0.00 0.00 0.00 43 1018.8
20260508133544 63 312 1.0 2.0 0.00 0.00 0.00 48 1018.9
20260508133041 62 13 0.0 2.0 0.00 0.00 0.00 54 1018.8
20260508132539 60 324 1.0 2.0 0.00 0.00 0.00 56 1018.9
20260508132035 62 28 0.0 2.0 0.00 0.00 0.00 55 1018.9
20260508131531 61 269 0.0 1.0 0.00 0.00 0.00 62 1018.8
20260508131028 62 305 0.0 2.0 0.00 0.00 0.00 62 1018.8
20260508130525 60 315 0.0 2.0 0.00 0.00 0.00 68 1018.7
20260508130021 60 218 0.0 1.0 0.00 0.00 0.00 70 1018.9
20260508125517 58 304 0.0 2.0 0.00 0.00 0.00 76 1018.8
20260508125015 57 330 1.0 2.0 0.00 0.00 0.00 74 1018.7
20260508124513 57 323 0.0 2.0 0.00 0.00 0.00 77 1018.8
20260508124009 56 240 0.0 2.0 0.00 0.00 0.00 82 1018.6
20260508123508 54 20 0.0 2.0 0.00 0.00 0.00 81 1018.9
20260508123004 52 350 4.0 4.0 0.00 0.00 0.00 86 1018.8
20260508122501 50 8 1.0 3.0 0.00 0.00 0.00 92 1018.6
20260508121958 50 3 3.0 3.0 0.00 0.00 0.00 99 1018.5
20260508121456 50 156 0.0 1.0 0.00 0.00 0.00 99 1018.5
20260508120954 49 351 1.0 2.0 0.00 0.00 0.00 99 1018.2
20260508120451 49 350 0.0 2.0 0.00 0.00 0.00 99 1018.3
20260508115949 48 357 1.0 2.0 0.00 0.00 0.00 99 1018.2
20260508115447 48 11 2.0 2.0 0.00 0.00 0.00 99 1018.1
20260508114943 48 95 0.0 1.0 0.00 0.00 0.00 99 1018.0
20260508114440 47 99 1.0 2.0 0.00 0.00 0.00 99 1017.9
20260508113937 47 23 1.0 3.0 0.00 0.00 0.00 99 1017.8
20260508113434 47 0 1.0 2.0 0.00 0.00 0.00 99 1017.9
20260508112931 46 47 1.0 2.0 0.00 0.00 0.00 99 1017.9
20260508112428 46 83 0.0 1.0 0.00 0.00 0.00 99 1017.7
20260508111925 45 219 0.0 2.0 0.00 0.00 0.00 99 1017.8
20260508111422 45 139 0.0 1.0 0.00 0.00 0.00 99 1017.6
20260508110919 45 25 0.0 2.0 0.00 0.00 0.00 99 1017.7
20260508110416 45 328 0.0 2.0 0.00 0.00 0.00 99 1017.2
20260508105910 44 130 0.0 2.0 0.00 0.00 0.00 99 1017.6
20260508105407 44 6 0.0 1.0 0.00 0.00 0.00 99 1017.1
20260508104904 44 64 1.0 2.0 0.00 0.00 0.00 99 1017.0
20260508104401 44 43 0.0 1.0 0.00 0.00 0.00 99 1017.0
20260508103858 44 116 1.0 2.0 0.00 0.00 0.00 99 1016.8
20260508103355 44 113 0.0 2.0 0.00 0.00 0.00 99 1016.9
20260508102852 44 138 1.0 2.0 0.00 0.00 0.00 99 1016.7
20260508102351 44 68 1.0 2.0 0.00 0.00 0.00 99 1017.1
20260508101848 44 74 0.0 1.0 0.00 0.00 0.00 99 1017.0
20260508101345 44 193 0.0 2.0 0.00 0.00 0.00 99 1017.0
20260508100842 44 63 0.0 1.0 0.00 0.00 0.00 99 1016.7
20260508100341 44 49 0.0 2.0 0.00 0.00 0.00 99 1016.6
20260508095836 44 324 0.0 2.0 0.00 0.00 0.00 99 1016.6
20260508095334 44 55 2.0 2.0 0.00 0.00 0.00 99 1016.6
20260508094831 44 11 0.0 2.0 0.00 0.00 0.00 99 1016.3
20260508094328 44 80 0.0 2.0 0.00 0.00 0.00 99 1016.3
20260508093825 44 1 1.0 2.0 0.00 0.00 0.00 99 1016.3
20260508093322 44 106 0.0 2.0 0.00 0.00 0.00 99 1016.3
20260508092820 44 30 0.0 2.0 0.00 0.00 0.00 99 1015.9
20260508092318 44 3 0.0 1.0 0.00 0.00 0.00 99 1016.2
20260508091816 44 120 2.0 2.0 0.00 0.00 0.00 99 1016.3
20260508091311 45 358 0.0 2.0 0.00 0.00 0.00 99 1015.9
20260508090809 45 63 0.0 2.0 0.00 0.00 0.00 99 1015.9
20260508090308 45 164 0.0 2.0 0.00 0.00 0.00 99 1016.1
20260508085803 45 355 2.0 2.0 0.00 0.00 0.00 99 1015.7
20260508085300 45 218 0.0 2.0 0.00 0.00 0.00 99 1015.6
20260508084756 46 31 2.0 2.0 0.00 0.00 0.00 99 1015.7
20260508084254 46 109 1.0 2.0 0.00 0.00 0.00 99 1015.8
20260508083751 46 352 2.0 2.0 0.00 0.00 0.00 99 1015.6
20260508083248 46 21 1.0 2.0 0.00 0.00 0.00 99 1015.6
20260508082748 46 8 0.0 2.0 0.00 0.00 0.00 99 1015.5
20260508082246 45 11 0.0 2.0 0.00 0.00 0.00 99 1015.5
20260508081743 46 44 0.0 2.0 0.00 0.00 0.00 99 1015.4
20260508081240 46 10 1.0 2.0 0.00 0.00 0.00 99 1015.4
20260508080737 46 3 1.0 1.0 0.00 0.00 0.00 99 1015.4
20260508080235 47 3 0.0 1.0 0.00 0.00 0.00 99 1015.4
20260508075731 47 103 0.0 2.0 0.00 0.00 0.00 99 1015.1
20260508075228 47 191 1.0 2.0 0.00 0.00 0.00 99 1015.3
20260508074726 47 176 0.0 2.0 0.00 0.00 0.00 99 1015.2
20260508074223 47 71 0.0 2.0 0.00 0.00 0.00 99 1015.1
20260508073720 46 155 1.0 2.0 0.00 0.00 0.00 99 1015.3
20260508073218 46 141 0.0 2.0 0.00 0.00 0.00 99 1015.1
20260508072714 46 48 0.0 1.0 0.00 0.00 0.00 99 1014.9
20260508072211 46 164 0.0 2.0 0.00 0.00 0.00 99 1014.9
20260508071708 46 74 1.0 1.0 0.00 0.00 0.00 99 1014.9
20260508071206 46 7 0.0 1.0 0.00 0.00 0.00 99 1014.8
20260508070703 46 55 0.0 1.0 0.00 0.00 0.00 99 1014.8
20260508070202 46 358 0.0 1.0 0.00 0.00 0.00 99 1015.0
20260508065659 46 34 0.0 2.0 0.00 0.00 0.00 99 1014.8
20260508065157 47 353 0.0 1.0 0.00 0.00 0.00 99 1014.8
20260508064654 47 68 1.0 1.0 0.00 0.00 0.00 99 1014.8
20260508064152 47 116 0.0 1.0 0.00 0.00 0.00 99 1014.8
20260508063649 47 210 1.0 2.0 0.00 0.00 0.00 99 1014.8
20260508063147 47 269 0.0 2.0 0.00 0.00 0.00 99 1014.6
20260508062644 48 130 0.0 1.0 0.00 0.00 0.00 99 1014.5
20260508062141 48 179 0.0 1.0 0.00 0.00 0.00 99 1014.6
20260508061638 48 184 0.0 2.0 0.00 0.00 0.00 99 1014.6
20260508061136 47 173 0.0 1.0 0.00 0.00 0.00 99 1014.6
20260508060632 47 136 0.0 2.0 0.00 0.00 0.00 99 1014.4
20260508060129 48 56 0.0 2.0 0.00 0.00 0.00 99 1014.3
20260508055625 48 339 0.0 1.0 0.00 0.00 0.00 99 1014.2
20260508055122 48 161 0.0 0.0 0.00 0.00 0.00 99 1014.3
20260508054618 48 133 0.0 1.0 0.00 0.00 0.00 99 1014.3
20260508054116 48 141 0.0 1.0 0.00 0.00 0.00 99 1014.2
20260508053613 48 39 0.0 1.0 0.00 0.00 0.00 99 1014.1
20260508053111 48 187 0.0 1.0 0.00 0.00 0.00 99 1014.3
20260508052608 48 121 0.0 2.0 0.00 0.00 0.00 99 1014.3
20260508052105 48 87 0.0 0.0 0.00 0.00 0.00 99 1014.4
20260508051601 48 29 0.0 1.0 0.00 0.00 0.00 99 1014.2
20260508051056 48 55 0.0 1.0 0.00 0.00 0.00 99 1014.2
20260508050553 48 127 0.0 1.0 0.00 0.00 0.00 99 1014.2
20260508050050 48 151 0.0 1.0 0.00 0.00 0.00 99 1014.3
20260508045546 48 185 0.0 1.0 0.00 0.00 0.00 99 1014.2
20260508045044 49 95 0.0 2.0 0.00 0.00 0.00 99 1014.2
20260508044541 49 142 0.0 1.0 0.00 0.00 0.00 99 1014.1
20260508044037 49 69 0.0 0.0 0.00 0.00 0.00 99 1013.8
20260508043534 49 168 0.0 1.0 0.00 0.00 0.00 99 1014.0
20260508043031 49 171 0.0 1.0 0.00 0.00 0.00 99 1013.8
20260508042528 49 130 0.0 2.0 0.00 0.00 0.00 99 1014.0
20260508042025 49 212 0.0 2.0 0.00 0.00 0.00 99 1013.9
20260508041521 49 326 0.0 1.0 0.00 0.00 0.00 99 1014.0
20260508041018 49 44 0.0 1.0 0.00 0.00 0.00 99 1013.9
20260508040515 49 159 0.0 2.0 0.00 0.00 0.00 99 1013.8
20260508040013 49 162 0.0 1.0 0.00 0.07 0.07 99 1013.8
20260508035509 49 114 0.0 1.0 0.00 0.07 0.07 99 1013.9
20260508035006 50 186 0.0 1.0 0.00 0.07 0.07 99 1013.6
20260508034504 50 172 0.0 2.0 0.00 0.07 0.07 99 1013.9
20260508034000 50 113 0.0 2.0 0.00 0.07 0.07 99 1013.6
20260508033458 50 224 0.0 1.0 0.00 0.07 0.07 99 1013.6
20260508032955 50 12 0.0 1.0 0.00 0.07 0.07 99 1013.5
20260508032453 50 6 0.0 1.0 0.00 0.07 0.07 99 1013.6
20260508031949 50 228 0.0 1.0 0.00 0.07 0.07 99 1013.6
20260508031447 50 224 0.0 2.0 0.00 0.07 0.07 99 1013.7
20260508030942 50 207 0.0 1.0 0.00 0.07 0.07 99 1013.7
20260508030440 50 130 0.0 1.0 0.00 0.07 0.07 99 1013.7
20260508025937 50 172 0.0 2.0 0.00 0.07 0.07 99 1013.6
20260508025433 50 102 0.0 1.0 0.00 0.07 0.07 99 1013.6
20260508024931 50 306 0.0 1.0 0.00 0.07 0.07 99 1013.4
20260508024427 50 315 0.0 0.0 0.00 0.07 0.07 99 1013.4
20260508023923 50 347 0.0 1.0 0.00 0.07 0.07 99 1013.6
20260508023420 50 158 0.0 2.0 0.00 0.07 0.07 99 1013.5
20260508022918 50 29 0.0 1.0 0.00 0.07 0.07 99 1013.4
20260508022413 50 0 0.0 2.0 0.00 0.07 0.07 99 1013.4
20260508021910 50 49 0.0 1.0 0.00 0.07 0.07 99 1013.3
20260508021406 50 326 0.0 1.0 0.00 0.07 0.07 99 1013.6
20260508020902 50 104 1.0 2.0 0.00 0.07 0.07 99 1013.3
20260508020400 50 182 0.0 1.0 0.00 0.07 0.07 99 1013.1
20260508015857 50 27 0.0 2.0 0.00 0.07 0.07 99 1013.1
20260508015355 50 8 0.0 2.0 0.00 0.07 0.07 99 1013.0
20260508014851 50 214 0.0 1.0 0.00 0.07 0.07 99 1013.2
20260508014348 50 19 0.0 2.0 0.00 0.07 0.07 98 1012.9
20260508013843 50 35 0.0 1.0 0.00 0.07 0.07 98 1012.9
20260508013340 50 96 0.0 1.0 0.00 0.07 0.07 98 1013.1
20260508012837 50 202 0.0 1.0 0.00 0.07 0.07 98 1013.0
20260508012335 50 37 1.0 1.0 0.00 0.07 0.07 98 1013.1
20260508011832 51 2 0.0 1.0 0.00 0.07 0.07 98 1013.1
20260508011330 51 66 0.0 1.0 0.00 0.07 0.07 98 1013.1
20260508010827 51 355 0.0 1.0 0.00 0.07 0.07 98 1013.1
20260508010325 51 151 0.0 2.0 0.00 0.07 0.07 97 1013.0
20260508005821 51 235 0.0 1.0 0.00 0.07 0.07 97 1013.0
20260508005318 51 308 0.0 0.0 0.00 0.07 0.07 97 1013.0
20260508004815 51 46 0.0 2.0 0.00 0.07 0.07 97 1012.8
20260508004311 51 315 0.0 1.0 0.00 0.07 0.07 96 1013.0
20260508003807 51 145 0.0 1.0 0.00 0.07 0.07 96 1012.8
20260508003305 51 44 2.0 2.0 0.00 0.07 0.07 96 1012.6
20260508002801 52 32 0.0 2.0 0.00 0.07 0.07 96 1012.8
20260508002258 52 320 0.0 1.0 0.00 0.07 0.07 96 1012.6
20260508001754 52 41 1.0 2.0 0.00 0.07 0.07 95 1012.6
20260508001250 52 309 0.0 1.0 0.00 0.07 0.07 95 1012.7
20260508000746 52 41 0.0 2.0 0.00 0.07 0.07 95 1012.5
20260508000243 52 255 0.0 2.0 0.00 0.07 0.07 95 1012.2
20260507235739 52 80 0.0 2.0 0.00 0.07 0.07 95 1012.2
20260507235238 52 276 1.0 2.0 0.00 0.07 0.07 95 1012.2
20260507234734 52 130 0.0 2.0 0.00 0.07 0.07 94 1011.9
20260507234231 53 83 0.0 1.0 0.00 0.07 0.07 94 1011.9
20260507233727 53 315 0.0 1.0 0.00 0.07 0.07 94 1012.0
20260507233225 53 269 0.0 2.0 0.00 0.07 0.07 94 1012.2
20260507232722 53 24 0.0 1.0 0.00 0.07 0.07 94 1012.1
20260507232219 53 304 0.0 1.0 0.00 0.07 0.07 93 1011.8
20260507231716 53 255 1.0 1.0 0.00 0.07 0.07 93 1011.9
20260507231213 53 257 0.0 1.0 0.00 0.07 0.07 92 1011.6
20260507230709 53 246 0.0 1.0 0.00 0.07 0.07 91 1011.8
20260507230207 53 292 0.0 2.0 0.00 0.07 0.07 91 1011.7
20260507225706 53 110 0.0 0.0 0.00 0.07 0.07 90 1011.6
20260507225203 53 224 0.0 1.0 0.00 0.07 0.07 89 1011.6
20260507224659 53 226 1.0 2.0 0.00 0.07 0.07 90 1011.9
20260507224155 53 230 1.0 1.0 0.00 0.07 0.07 92 1011.7
20260507223651 53 217 0.0 2.0 0.00 0.07 0.07 92 1011.8
20260507223148 53 243 1.0 3.0 0.00 0.07 0.07 92 1011.6
20260507222646 53 283 0.0 2.0 0.00 0.07 0.07 92 1011.8
20260507222142 53 299 0.0 2.0 0.00 0.07 0.07 92 1011.7
20260507221638 53 102 1.0 1.0 0.00 0.07 0.07 92 1011.7
20260507221134 53 247 1.0 2.0 0.00 0.07 0.07 91 1011.8
20260507220632 53 350 1.0 2.0 0.00 0.07 0.07 91 1011.5
20260507220130 53 287 0.0 1.0 0.00 0.07 0.07 92 1011.4
20260507215625 53 67 0.0 1.0 0.00 0.07 0.07 93 1011.6
20260507215123 53 283 1.0 1.0 0.00 0.07 0.07 93 1011.6
20260507214620 52 6 0.0 2.0 0.00 0.07 0.07 92 1011.6
20260507214117 53 347 0.0 2.0 0.00 0.07 0.07 92 1011.7
20260507213613 53 235 0.0 1.0 0.00 0.07 0.07 93 1011.7
20260507213110 53 304 0.0 2.0 0.00 0.07 0.07 93 1011.6
20260507212606 53 2 1.0 2.0 0.00 0.07 0.07 94 1011.3
20260507212103 53 212 2.0 3.0 0.00 0.07 0.07 93 1011.4
20260507211600 53 172 1.0 2.0 0.00 0.07 0.07 93 1011.3
20260507211055 53 256 1.0 2.0 0.00 0.07 0.07 94 1011.4
20260507210553 53 299 0.0 3.0 0.00 0.07 0.07 95 1011.3
20260507210050 53 111 2.0 3.0 0.00 0.07 0.07 95 1011.1
20260507205546 53 255 1.0 3.0 0.00 0.07 0.07 95 1011.7
20260507205043 53 282 0.0 2.0 0.00 0.07 0.07 94 1011.4
20260507204539 53 117 1.0 1.0 0.05 0.07 0.07 93 1011.6
20260507204037 54 132 1.0 1.0 0.07 0.07 0.07 93 1011.8
20260507203535 54 77 0.0 2.0 0.07 0.06 0.06 91 1012.0
20260507203032 54 271 1.0 1.0 0.07 0.06 0.06 91 1012.0
20260507202527 54 300 0.0 2.0 0.02 0.05 0.05 90 1012.0
20260507202024 54 301 0.0 1.0 0.02 0.05 0.05 90 1011.6
20260507201519 54 28 0.0 1.0 0.02 0.05 0.05 90 1011.6
20260507201016 54 172 0.0 2.0 0.05 0.04 0.04 89 1011.7
20260507200511 54 230 0.0 2.0 0.05 0.04 0.04 88 1011.5
20260507200008 55 54 0.0 2.0 0.05 0.04 0.04 89 1011.6
20260507195505 55 119 0.0 2.0 0.02 0.03 0.03 86 1012.1
20260507195003 55 215 1.0 2.0 0.00 0.03 0.03 83 1011.8
20260507194459 55 342 1.0 2.0 0.00 0.03 0.03 84 1012.0
20260507193954 55 332 1.0 2.0 0.00 0.03 0.03 83 1012.0
20260507193452 55 69 0.0 3.0 0.00 0.03 0.03 81 1011.8
20260507192949 55 100 1.0 2.0 0.00 0.03 0.03 82 1011.9
20260507192444 56 126 1.0 3.0 0.00 0.03 0.03 81 1012.2
20260507191942 56 294 0.0 2.0 0.00 0.03 0.03 81 1012.2
20260507191438 55 301 2.0 2.0 0.00 0.03 0.03 79 1012.4
20260507190934 55 205 0.0 2.0 0.00 0.03 0.03 78 1012.1
20260507190432 56 159 0.0 2.0 0.00 0.03 0.03 79 1012.3